Retour au catalogue

YAOGAN-31 F

ActifMilitaireLEO
NORAD 47536·PAYLOAD·🇨🇳 China

Lancé Jan 29, 2021 depuis Jiuquan Satellite Launch Center

Loading…

Prochains Passages (prochaines 24 heures)

TLE

FraisSource: Space-Track

Époque: Sep 14, 2026, 23:26 UTC

1 47536U 21007E   26257.97700694  .00000057  00000-0  22360-3 0  9997
2 47536  63.4009 271.3739 0183755   0.9511 359.1829 13.45453613276294

Suivez YAOGAN-31 F en temps réel avec AllMySat

Download on the App Store